STARLINK-35530, 65921

Orbit data source: Space-Track

STARLINK-35530, 65921 is a payload satellite owned by SpaceX/Seattle (US) in LEO that was launched on Wed, 08 Oct 2025 UTC via an FALCON 9 launch vehicle from the Air Force Western Test Range (AFWTR). Payload-class satellites include a variety of spacecraft equipped with specific instruments for various scientific and technological missions. These include communications satellites like Starlink; space stations such as the ISS; scientific satellites like the Hubble; Earth observation satellites from companies like Planet Labs, Umbra, and HawkEye 360; GPS; miniature CubeSats for education and research; and military/defense satellites.

Loading next visibility...
Identifier
65921, 2025-225M
Orbit
LEO
Country
Flag of USUS
Related business
Manufacturer
SpaceX/Seattle
Mission
Operational Commercial Communications
Bus & Motor
STARLINK V2MO, Unknown motor
Mass
575 kg wet, ~530 kg dry
Launch date (UTC)
2025-10-08 (8 months ago)
Launch vehicle
FALCON 9
Launch site
Air Force Western Test Range (AFWTR)
Object type
Payload
Rocket body
Debris
Shape & HBR
Box + 2 Pan, 17.7 m
Radar Cross Section
36.964 m², Large (>1 m²)

Expand to show TLE details & history
Last TLE update: 9 hours ago

TLE from 9 hours ago
0 STARLINK-35530
1 65921U 25225M   26151.37057644  .00042049  00000-0  14236-2 0  9997
2 65921  53.1586 141.8681 0001235  72.1915 287.9220 15.30204265 37062
Epoch: 2026-05-31T08:53Z
TLE epoch observation values (Epoch: 2026-05-31T08:53:37.804Z)
Latitude
-0.00005°
Longitude
119.58732°
Altitude
475.842 km
Speed
7.629 km/s
True Right ascension
09h 27m 28s
True Declination
0° 00' 00"
Sunlit
Object was in daylight at epoch
Visualization orbit readout
Latitude
Unknown
Longitude
Unknown
Altitude
Unknown
Speed
Unknown
Apparent Right ascension
Unknown
Apparent Declination
Unknown
Sunlit
N/A
Visualization observer readout
Local Sidereal Time
03:18:40
Azimuth
Unknown
Elevation
Unknown
Doppler factor
Unknown
Orbital elements
Apogee altitude
476.305 km
Perigee altitude
474.613 km
Semi-major axis
6,853.596 km
Eccentricity
0.00012
Inclination
53.1586°
RAAN
141.8681°
Arg. of periapsis
72.1915°
True anomaly
287.90853°
Mean anomaly
287.922°
Eccentric anomaly
287.91527°
Mean motion
3.8253 °/min
Orbital period
94.11 mins
BSTAR
0.0014236
Loading maneuver chart data...
Computing Atmospheric mass density...
Loading historical data...
Loading historical data...
Loading historical data...
Loading historical data...
Loading historical data...
Loading historical data...
Loading historical data...

Documentation

Showing up to 5 results
|